When you browse on this site, cookies collect data to enhance your experience and personalize the content and advertising you see.
Visit our Privacy Policy to learn more. By continuing to use the site, you agree to this use of cookies and data.
  • In Deutschland
  • Länderverzeichnis
  • Für 7 Tage
  • Wassertemperatur
  • Satellitenkarten
  • Wetterkarte
  • Widgets
  • user-avatar
    Anmelden

    Stündliche Wetter Berlin

    Heute, 19 Juni, Mittwoch

    Zeit Temperatur Niederschläge Wind Luftdruck Luftfeuchtigkeit
    00:00 +22°C° 0 mm 3 m/S 757 mmHg 70%
    01:00 +21°C° 0 mm 3 m/S 756 mmHg 74%
    02:00 +20°C° 0 mm 2 m/S 756 mmHg 77%
    03:00 +20°C° 0 mm 2 m/S 756 mmHg 80%
    04:00 +19°C° 0 mm 2 m/S 756 mmHg 82%
    05:00 +20°C° 0 mm 2 m/S 755 mmHg 78%
    06:00 +23°C° 0 mm 2 m/S 755 mmHg 74%
    07:00 +24°C° 0 mm 2 m/S 755 mmHg 70%
    08:00 +25°C° 0 mm 2 m/S 755 mmHg 64%
    09:00 +27°C° 0 mm 3 m/S 755 mmHg 58%
    10:00 +29°C° 0 mm 3 m/S 754 mmHg 52%
    11:00 +30°C° 0 mm 3 m/S 754 mmHg 47%
    12:00 +31°C° 0 mm 3 m/S 754 mmHg 42%
    13:00 +33°C° 0 mm 3 m/S 754 mmHg 36%
    14:00 +33°C° 0 mm 3 m/S 753 mmHg 37%
    15:00 +33°C° 0 mm 3 m/S 753 mmHg 37%
    16:00 +33°C° 0 mm 3 m/S 753 mmHg 38%
    17:00 +31°C° 0 mm 3 m/S 752 mmHg 41%
    18:00 +30°C° 0 mm 2 m/S 752 mmHg 45%
    19:00 +29°C° 0 mm 2 m/S 752 mmHg 48%
    20:00 +28°C° 0 mm 2 m/S 752 mmHg 52%
    21:00 +26°C° 0 mm 1 m/S 752 mmHg 55%
    22:00 +25°C° 0 mm 1 m/S 753 mmHg 59%
    23:00 +24°C° 0.1 mm 1 m/S 753 mmHg 62%

    Morgen, 20 Juni, Donnerstag

    Zeit Temperatur Niederschläge Wind Luftdruck Luftfeuchtigkeit
    00:00 +24°C° 0.1 mm 2 m/S 753 mmHg 65%
    01:00 +23°C° 0.1 mm 2 m/S 753 mmHg 69%
    02:00 +21°C° 0.1 mm 2 m/S 753 mmHg 72%
    03:00 +21°C° 0.1 mm 2 m/S 752 mmHg 74%
    04:00 +21°C° 0.1 mm 2 m/S 752 mmHg 77%
    05:00 +21°C° 0 mm 2 m/S 752 mmHg 74%
    06:00 +22°C° 0 mm 3 m/S 753 mmHg 71%
    07:00 +24°C° 0 mm 3 m/S 753 mmHg 68%
    08:00 +25°C° 0 mm 3 m/S 753 mmHg 63%
    09:00 +26°C° 0 mm 3 m/S 753 mmHg 58%
    10:00 +28°C° 0 mm 3 m/S 753 mmHg 53%
    11:00 +28°C° 0 mm 3 m/S 753 mmHg 51%
    12:00 +29°C° 0 mm 4 m/S 753 mmHg 49%
    13:00 +30°C° 0 mm 4 m/S 753 mmHg 46%
    14:00 +29°C° 0.2 mm 4 m/S 754 mmHg 48%
    15:00 +29°C° 0.2 mm 4 m/S 754 mmHg 50%
    16:00 +28°C° 0.2 mm 4 m/S 754 mmHg 52%
    17:00 +27°C° 0.1 mm 3 m/S 754 mmHg 57%
    18:00 +26°C° 0.1 mm 3 m/S 754 mmHg 61%
    19:00 +25°C° 0.1 mm 2 m/S 754 mmHg 66%
    20:00 +24°C° 0.1 mm 2 m/S 755 mmHg 70%
    21:00 +23°C° 0.1 mm 2 m/S 755 mmHg 74%
    22:00 +22°C° 0.1 mm 1 m/S 755 mmHg 78%
    23:00 +21°C° 0.2 mm 1 m/S 756 mmHg 81%

    übermorgen, 21 Juni, Freitag

    Zeit Temperatur Niederschläge Wind Luftdruck Luftfeuchtigkeit
    00:00 +20°C° 0.2 mm 2 m/S 756 mmHg 84%
    01:00 +19°C° 0.2 mm 2 m/S 756 mmHg 86%
    02:00 +18°C° 0 mm 2 m/S 756 mmHg 88%
    03:00 +18°C° 0 mm 2 m/S 757 mmHg 89%
    04:00 +18°C° 0 mm 3 m/S 757 mmHg 91%
    05:00 +18°C° 0 mm 3 m/S 757 mmHg 88%
    06:00 +19°C° 0 mm 2 m/S 758 mmHg 86%
    07:00 +19°C° 0 mm 2 m/S 758 mmHg 83%
    08:00 +20°C° 0 mm 3 m/S 758 mmHg 77%
    09:00 +21°C° 0 mm 3 m/S 759 mmHg 71%
    10:00 +22°C° 0 mm 3 m/S 759 mmHg 64%
    11:00 +24°C° 0 mm 3 m/S 759 mmHg 59%
    12:00 +25°C° 0 mm 3 m/S 759 mmHg 53%
    13:00 +26°C° 0 mm 3 m/S 759 mmHg 47%
    14:00 +26°C° 0 mm 3 m/S 759 mmHg 45%
    15:00 +26°C° 0 mm 3 m/S 759 mmHg 43%
    16:00 +26°C° 0 mm 3 m/S 759 mmHg 41%
    17:00 +25°C° 0 mm 3 m/S 759 mmHg 44%
    18:00 +24°C° 0 mm 3 m/S 759 mmHg 48%
    19:00 +24°C° 0 mm 2 m/S 759 mmHg 51%
    20:00 +21°C° 0 mm 2 m/S 760 mmHg 57%
    21:00 +20°C° 0 mm 2 m/S 760 mmHg 63%
    22:00 +19°C° 0 mm 1 m/S 760 mmHg 69%
    23:00 +19°C° 0 mm 1 m/S 760 mmHg 74%

    22 Juni, Samstag

    Zeit Temperatur Niederschläge Wind Luftdruck Luftfeuchtigkeit
    00:00 +18°C° 0 mm 1 m/S 760 mmHg 79%
    01:00 +16°C° 0 mm 1 m/S 761 mmHg 84%
    02:00 +16°C° 0 mm 1 m/S 760 mmHg 82%
    03:00 +15°C° 0 mm 1 m/S 760 mmHg 85%
    04:00 +15°C° 0 mm 1 m/S 761 mmHg 87%
    05:00 +16°C° 0 mm 1 m/S 761 mmHg 84%
    06:00 +17°C° 0 mm 2 m/S 761 mmHg 80%
    07:00 +18°C° 0 mm 2 m/S 762 mmHg 76%
    08:00 +20°C° 0.1 mm 2 m/S 762 mmHg 70%
    09:00 +21°C° 0.1 mm 2 m/S 762 mmHg 63%
    10:00 +24°C° 0.1 mm 3 m/S 762 mmHg 57%
    11:00 +24°C° 0.1 mm 3 m/S 761 mmHg 55%
    12:00 +24°C° 0.1 mm 3 m/S 761 mmHg 53%
    13:00 +25°C° 0.1 mm 3 m/S 761 mmHg 51%
    14:00 +25°C° 0.1 mm 4 m/S 761 mmHg 52%
    15:00 +23°C° 0.1 mm 4 m/S 761 mmHg 54%
    16:00 +23°C° 0.1 mm 5 m/S 760 mmHg 55%
    17:00 +22°C° 0 mm 5 m/S 760 mmHg 58%
    18:00 +21°C° 0 mm 5 m/S 761 mmHg 60%
    19:00 +20°C° 0 mm 5 m/S 761 mmHg 63%
    20:00 +19°C° 0 mm 5 m/S 761 mmHg 64%
    21:00 +17°C° 0 mm 5 m/S 761 mmHg 65%
    22:00 +15°C° 0 mm 4 m/S 762 mmHg 67%
    23:00 +15°C° 0 mm 4 m/S 762 mmHg 65%

    23 Juni, Sonntag

    Zeit Temperatur Niederschläge Wind Luftdruck Luftfeuchtigkeit
    00:00 +15°C° 0 mm 4 m/S 762 mmHg 64%
    01:00 +14°C° 0 mm 4 m/S 762 mmHg 62%
    02:00 +14°C° 0.1 mm 4 m/S 762 mmHg 66%
    03:00 +14°C° 0.1 mm 4 m/S 761 mmHg 69%
    04:00 +13°C° 0.1 mm 4 m/S 761 mmHg 72%
    05:00 +14°C° 0 mm 4 m/S 762 mmHg 73%
    06:00 +14°C° 0 mm 3 m/S 762 mmHg 73%
    07:00 +16°C° 0 mm 3 m/S 762 mmHg 73%
    08:00 +16°C° 0 mm 3 m/S 762 mmHg 70%
    09:00 +17°C° 0 mm 2 m/S 762 mmHg 68%
    10:00 +17°C° 0 mm 2 m/S 763 mmHg 65%
    11:00 +18°C° 0 mm 2 m/S 763 mmHg 60%
    12:00 +19°C° 0 mm 2 m/S 763 mmHg 55%
    13:00 +20°C° 0 mm 2 m/S 763 mmHg 50%
    14:00 +21°C° 0 mm 3 m/S 763 mmHg 49%
    15:00 +21°C° 0 mm 3 m/S 763 mmHg 49%
    16:00 +21°C° 0 mm 3 m/S 763 mmHg 48%
    17:00 +21°C° 0 mm 3 m/S 763 mmHg 52%
    18:00 +20°C° 0 mm 3 m/S 763 mmHg 55%
    19:00 +20°C° 0 mm 3 m/S 763 mmHg 58%
    20:00 +18°C° 0 mm 3 m/S 763 mmHg 63%
    21:00 +17°C° 0 mm 3 m/S 764 mmHg 68%
    22:00 +15°C° 0 mm 2 m/S 764 mmHg 73%
    23:00 +14°C° 0 mm 2 m/S 764 mmHg 75%

    24 Juni, Montag

    Zeit Temperatur Niederschläge Wind Luftdruck Luftfeuchtigkeit
    00:00 +14°C° 0 mm 2 m/S 764 mmHg 77%
    01:00 +13°C° 0 mm 2 m/S 765 mmHg 79%
    02:00 +13°C° 0 mm 2 m/S 765 mmHg 80%
    03:00 +12°C° 0 mm 1 m/S 765 mmHg 80%
    04:00 +12°C° 0 mm 1 m/S 765 mmHg 81%
    05:00 +14°C° 0 mm 1 m/S 765 mmHg 75%
    06:00 +15°C° 0 mm 1 m/S 765 mmHg 68%
    07:00 +18°C° 0 mm 1 m/S 766 mmHg 62%
    08:00 +20°C° 0 mm 1 m/S 766 mmHg 55%
    09:00 +22°C° 0 mm 1 m/S 766 mmHg 48%
    10:00 +24°C° 0 mm 1 m/S 766 mmHg 41%
    11:00 +25°C° 0 mm 1 m/S 766 mmHg 38%
    12:00 +26°C° 0 mm 1 m/S 766 mmHg 35%
    13:00 +26°C° 0 mm 1 m/S 765 mmHg 32%
    14:00 +27°C° 0 mm 1 m/S 765 mmHg 32%
    15:00 +27°C° 0 mm 2 m/S 765 mmHg 32%
    16:00 +27°C° 0 mm 2 m/S 765 mmHg 31%
    17:00 +26°C° 0 mm 2 m/S 765 mmHg 37%
    18:00 +25°C° 0 mm 2 m/S 765 mmHg 42%
    19:00 +24°C° 0 mm 2 m/S 765 mmHg 47%
    20:00 +21°C° 0 mm 2 m/S 765 mmHg 55%
    21:00 +20°C° 0 mm 3 m/S 766 mmHg 62%
    22:00 +18°C° 0 mm 3 m/S 766 mmHg 70%
    23:00 +17°C° 0 mm 3 m/S 766 mmHg 73%
    Mehr zeigen